User: anonymous   Login
Location: Newark
(15.4608°S, 41.1635°W)
Time: 16:37:12
(UTC+00:00)
Language:

Transit 2A - Orbit

View from above orbital plane
View from above orbital plane
View from above satellite
View from above satellite

Ground track
Ground track

The orbit data is extracted from the following two-line orbital elements,

1    45U 60007A   21057.44204624 -.00000044  00000-0  15704-4 0  9993
2    45  66.6938  71.5447 0249724 131.8725 230.3983 14.33707307159112
Epoch (UTC): 26 February 2021 10:36:32
Eccentricity: 0.0249724
inclination: 66.6938°
perigee height: 600 km
apogee height: 958 km
right ascension of ascending node: 71.5447°
argument of perigee: 131.8725°
revolutions per day: 14.33707307
mean anomaly at epoch: 230.3983°
orbit number at epoch: 15911

The dashed part of the orbit path shows where the satellite is in the earth's shadow,  

DLR